| time (UTC) | temp F | wind direction | speed MPH | gust MPH | rain 1hr in | rain 24hr in | rain mn in | humidity % | barometer mb |
| 20260503204003 | 58 | 316 | 2.0 | 2.0 | 0.00 | 0.00 | 0.00 | 69 | 986.4 |
| 20260503203003 | 58 | 315 | 1.0 | 1.0 | 0.00 | 0.00 | 0.00 | 69 | 986.5 |
| 20260503202002 | 58 | 316 | 1.0 | 2.0 | 0.00 | 0.00 | 0.00 | 70 | 986.5 |
| 20260503201003 | 59 | 316 | 1.0 | 2.0 | 0.00 | 0.00 | 0.00 | 71 | 986.5 |
| 20260503200003 | 58 | 316 | 1.0 | 2.0 | 0.00 | 0.00 | 0.00 | 73 | 986.5 |
| 20260503195003 | 58 | 315 | 1.0 | 1.0 | 0.00 | 0.00 | 0.00 | 72 | 986.5 |
| 20260503194002 | 58 | 315 | 1.0 | 2.0 | 0.00 | 0.00 | 0.00 | 72 | 986.6 |
| 20260503193003 | 58 | 314 | 2.0 | 2.0 | 0.00 | 0.00 | 0.00 | 70 | 986.6 |
| 20260503192003 | 57 | 314 | 1.0 | 2.0 | 0.00 | 0.00 | 0.00 | 76 | 986.5 |
| 20260503191002 | 57 | 316 | 1.0 | 2.0 | 0.00 | 0.00 | 0.00 | 75 | 986.5 |
| 20260503190003 | 57 | 315 | 1.0 | 1.0 | 0.00 | 0.00 | 0.00 | 77 | 986.6 |
| 20260503185003 | 56 | 315 | 1.0 | 1.0 | 0.00 | 0.00 | 0.00 | 71 | 986.6 |
| 20260503184004 | 56 | 315 | 1.0 | 1.0 | 0.00 | 0.00 | 0.00 | 75 | 986.5 |
| 20260503183003 | 57 | 315 | 1.0 | 1.0 | 0.00 | 0.00 | 0.00 | 78 | 986.6 |
| 20260503182003 | 56 | 315 | 1.0 | 1.0 | 0.00 | 0.00 | 0.00 | 78 | 986.5 |
| 20260503181003 | 56 | 315 | 1.0 | 1.0 | 0.00 | 0.00 | 0.00 | 76 | 986.5 |
| 20260503180005 | 56 | 315 | 1.0 | 1.0 | 0.00 | 0.00 | 0.00 | 77 | 986.5 |
| 20260503175002 | 56 | 315 | 1.0 | 1.0 | 0.00 | 0.00 | 0.00 | 78 | 986.6 |
| 20260503174003 | 55 | 316 | 1.0 | 1.0 | 0.00 | 0.00 | 0.00 | 83 | 986.7 |
| 20260503173003 | 54 | 316 | 1.0 | 1.0 | 0.00 | 0.00 | 0.00 | 84 | 986.7 |
| 20260503172003 | 54 | 316 | 1.0 | 1.0 | 0.00 | 0.00 | 0.00 | 83 | 986.6 |
| 20260503171003 | 53 | 316 | 1.0 | 1.0 | 0.00 | 0.00 | 0.00 | 90 | 986.6 |
| 20260503151003 | 51 | 311 | 1.0 | 1.0 | 0.00 | 0.00 | 0.00 | 92 | 986.1 |
| 20260503131003 | 51 | 309 | 2.0 | 2.0 | 0.00 | 0.00 | 0.00 | 93 | 984.8 |
| 20260503081003 | 52 | 101 | 0.0 | 0.0 | 0.00 | 0.00 | 0.00 | 88 | 985.4 |
| 20260503072002 | 52 | 0 | 0.0 | 0.0 | 0.00 | 0.00 | 0.00 | 87 | 985.4 |
| 20260503071003 | 52 | 138 | 0.0 | 1.0 | 0.00 | 0.00 | 0.00 | 87 | 985.4 |
| 20260503055002 | 52 | 0 | 0.0 | 0.0 | 0.00 | 0.00 | 0.00 | 86 | 985.6 |
| 20260503054004 | 52 | 209 | 0.0 | 0.0 | 0.00 | 0.00 | 0.00 | 86 | 985.6 |
| 20260503053003 | 52 | 174 | 1.0 | 1.0 | 0.00 | 0.00 | 0.00 | 86 | 985.7 |
| 20260503052002 | 52 | 124 | 0.0 | 1.0 | 0.00 | 0.00 | 0.00 | 87 | 985.8 |
| 20260503051003 | 52 | 179 | 0.0 | 1.0 | 0.00 | 0.00 | 0.00 | 86 | 985.9 |
| 20260503050005 | 52 | 99 | 0.0 | 0.0 | 0.00 | 0.00 | 0.00 | 86 | 985.8 |
| 20260503045003 | 52 | 165 | 1.0 | 2.0 | 0.00 | 0.00 | 0.00 | 86 | 985.7 |
| 20260503044003 | 52 | 138 | 0.0 | 1.0 | 0.00 | 0.00 | 0.00 | 86 | 985.6 |
| 20260503043003 | 52 | 137 | 1.0 | 2.0 | 0.00 | 0.00 | 0.00 | 85 | 985.6 |
| 20260503042003 | 52 | 194 | 1.0 | 2.0 | 0.00 | 0.00 | 0.00 | 85 | 985.5 |
| 20260503041002 | 52 | 147 | 1.0 | 2.0 | 0.00 | 0.00 | 0.00 | 85 | 985.4 |
| 20260503040003 | 52 | 171 | 1.0 | 2.0 | 0.00 | 0.00 | 0.00 | 86 | 985.3 |
| 20260503035003 | 52 | 127 | 1.0 | 3.0 | 0.00 | 0.00 | 0.00 | 85 | 985.2 |
| 20260503034003 | 53 | 126 | 1.0 | 2.0 | 0.00 | 0.00 | 0.00 | 85 | 985.1 |
| 20260503033003 | 53 | 210 | 2.0 | 3.0 | 0.00 | 0.00 | 0.00 | 85 | 985.0 |
| 20260503032002 | 53 | 127 | 2.0 | 2.0 | 0.00 | 0.00 | 0.00 | 85 | 984.9 |
| 20260503031003 | 53 | 148 | 1.0 | 2.0 | 0.00 | 0.00 | 0.00 | 85 | 984.8 |
| 20260503030003 | 53 | 159 | 1.0 | 2.0 | 0.00 | 0.00 | 0.00 | 86 | 984.8 |
| 20260503025003 | 53 | 166 | 1.0 | 2.0 | 0.00 | 0.00 | 0.00 | 85 | 984.7 |
| 20260503024002 | 54 | 166 | 2.0 | 2.0 | 0.00 | 0.00 | 0.00 | 86 | 984.6 |
| 20260503023004 | 54 | 161 | 2.0 | 4.0 | 0.00 | 0.00 | 0.00 | 85 | 984.5 |
| 20260503022003 | 54 | 129 | 2.0 | 2.0 | 0.00 | 0.00 | 0.00 | 85 | 984.4 |
| 20260503021002 | 55 | 149 | 1.0 | 2.0 | 0.00 | 0.00 | 0.00 | 84 | 984.4 |
| 20260503020004 | 55 | 163 | 1.0 | 2.0 | 0.00 | 0.00 | 0.00 | 84 | 984.4 |
| 20260503015003 | 55 | 151 | 1.0 | 2.0 | 0.00 | 0.00 | 0.00 | 83 | 984.5 |
| 20260503014004 | 56 | 146 | 1.0 | 2.0 | 0.00 | 0.00 | 0.00 | 83 | 984.6 |
| 20260503013002 | 56 | 163 | 1.0 | 1.0 | 0.00 | 0.00 | 0.00 | 82 | 984.6 |
| 20260503012003 | 56 | 141 | 1.0 | 2.0 | 0.00 | 0.00 | 0.00 | 82 | 984.6 |
| 20260503011004 | 57 | 200 | 1.0 | 1.0 | 0.00 | 0.00 | 0.00 | 81 | 984.6 |
| 20260503010002 | 57 | 155 | 3.0 | 4.0 | 0.00 | 0.00 | 0.00 | 80 | 984.6 |
| 20260503005003 | 58 | 118 | 1.0 | 2.0 | 0.00 | 0.00 | 0.00 | 80 | 984.6 |
| 20260503004004 | 58 | 159 | 2.0 | 3.0 | 0.00 | 0.00 | 0.00 | 80 | 984.5 |
| 20260503003004 | 58 | 148 | 3.0 | 7.0 | 0.00 | 0.00 | 0.00 | 79 | 984.5 |
| 20260503002003 | 58 | 135 | 3.0 | 4.0 | 0.00 | 0.00 | 0.00 | 78 | 984.6 |
| 20260503001003 | 59 | 130 | 4.0 | 6.0 | 0.00 | 0.00 | 0.00 | 77 | 984.6 |
| 20260503000005 | 60 | 126 | 3.0 | 4.0 | 0.00 | 0.00 | 0.00 | 77 | 984.6 |
| 20260502235002 | 61 | 198 | 3.0 | 4.0 | 0.00 | 0.00 | 0.00 | 75 | 984.6 |
| 20260502234003 | 61 | 172 | 2.0 | 3.0 | 0.00 | 0.00 | 0.00 | 75 | 984.6 |
| 20260502233003 | 63 | 219 | 2.0 | 3.0 | 0.00 | 0.00 | 0.00 | 72 | 984.6 |
| 20260502232002 | 64 | 222 | 1.0 | 2.0 | 0.00 | 0.00 | 0.00 | 71 | 984.7 |
| 20260502231004 | 65 | 153 | 2.0 | 3.0 | 0.00 | 0.00 | 0.00 | 71 | 984.8 |
| 20260502230003 | 65 | 198 | 0.0 | 2.0 | 0.00 | 0.00 | 0.00 | 69 | 985.0 |
| 20260502225003 | 65 | 177 | 2.0 | 3.0 | 0.00 | 0.00 | 0.00 | 69 | 985.1 |
| 20260502224003 | 65 | 217 | 2.0 | 4.0 | 0.00 | 0.00 | 0.00 | 68 | 985.3 |
| 20260502223003 | 65 | 225 | 2.0 | 3.0 | 0.00 | 0.00 | 0.00 | 70 | 985.4 |
| 20260502222002 | 65 | 148 | 2.0 | 3.0 | 0.00 | 0.00 | 0.00 | 69 | 985.6 |
| 20260502221003 | 66 | 222 | 2.0 | 3.0 | 0.00 | 0.00 | 0.00 | 68 | 985.8 |
| 20260502220003 | 65 | 201 | 0.0 | 1.0 | 0.00 | 0.00 | 0.00 | 70 | 985.9 |
| 20260502215002 | 66 | 233 | 2.0 | 4.0 | 0.00 | 0.00 | 0.00 | 68 | 986.1 |
| 20260502214004 | 64 | 141 | 2.0 | 4.0 | 0.00 | 0.00 | 0.00 | 70 | 986.1 |
| 20260502213003 | 64 | 209 | 2.0 | 3.0 | 0.00 | 0.00 | 0.00 | 72 | 986.0 |
| 20260502212002 | 64 | 158 | 2.0 | 3.0 | 0.00 | 0.00 | 0.00 | 72 | 986.2 |
| 20260502211004 | 64 | 193 | 3.0 | 5.0 | 0.00 | 0.00 | 0.00 | 70 | 986.2 |
| 20260502210003 | 62 | 220 | 2.0 | 3.0 | 0.00 | 0.00 | 0.00 | 74 | 986.3 |
| 20260502205003 | 63 | 201 | 1.0 | 2.0 | 0.00 | 0.00 | 0.00 | 73 | 986.4 |